CW3817 Weather Reports


Display with metric or nautical units.
time (UTC)temp
F
wind
direction
speed
MPH
gust
MPH
rain 1hr
in
rain 24hr
in
rain mn
in
humidity
%
barometer
mb
20210305094311 8 310 6.0 15.0 0.00 0.00 0.00 55 993.5
20210305093753 8 290 5.0 12.0 0.00 0.00 0.00 55 993.5
20210305092836 8 326 6.0 12.0 0.00 0.00 0.00 55 993.4
20210305092655 8 290 4.0 12.0 0.00 0.00 0.00 55 993.4
20210305091727 8 298 4.0 13.0 0.00 0.00 0.00 55 993.1
20210305090251 9 351 4.0 13.0 0.00 0.00 0.00 56 993.1
20210305085817 9 300 4.0 13.0 0.00 0.00 0.00 55 993.1
20210305085451 9 308 6.0 15.0 0.00 0.00 0.00 55 993.1
20210305084924 9 285 7.0 15.0 0.00 0.00 0.00 55 993.1
20210305084212 9 292 5.0 15.0 0.00 0.00 0.00 55 993.1
20210305082809 9 298 8.0 18.0 0.00 0.00 0.00 56 993.0
20210305081300 9 312 5.0 17.0 0.00 0.00 0.00 57 992.7
20210305080757 9 276 8.0 17.0 0.00 0.00 0.00 57 992.7
20210305080237 9 296 8.0 18.0 0.00 0.00 0.00 58 992.5
20210305075845 9 306 6.0 12.0 0.00 0.00 0.00 59 992.5
20210305074840 10 305 4.0 12.0 0.00 0.00 0.00 59 992.5
20210305073222 10 308 5.0 17.0 0.00 0.00 0.00 59 992.5
20210305072617 10 320 3.0 14.0 0.00 0.00 0.00 58 992.5
20210305071821 10 321 6.0 15.0 0.00 0.00 0.00 58 992.5
20210305071230 10 292 4.0 15.0 0.00 0.00 0.00 58 992.5
20210305065637 10 300 3.0 18.0 0.00 0.00 0.00 58 992.5
20210305063738 10 300 7.0 20.0 0.00 0.00 0.00 58 992.5
20210305063226 11 302 9.0 20.0 0.00 0.00 0.00 58 992.5
20210305063048 11 286 10.0 18.0 0.00 0.00 0.00 57 992.5
20210305062845 11 320 4.0 14.0 0.00 0.00 0.00 57 992.5
20210305061246 11 318 6.0 16.0 0.00 0.00 0.00 57 992.3
20210305060725 11 318 4.0 16.0 0.00 0.00 0.00 58 992.3
20210305055915 11 311 7.0 22.0 0.00 0.00 0.00 58 992.0
20210305055608 11 296 8.0 21.0 0.00 0.00 0.00 59 992.0
20210305054254 11 279 8.0 22.0 0.00 0.00 0.00 61 992.0
20210305050738 12 310 5.0 17.0 0.00 0.00 0.00 60 992.0
20210305045858 12 334 5.0 14.0 0.00 0.00 0.00 60 992.0
20210305045706 12 323 5.0 16.0 0.00 0.00 0.00 60 992.0
20210305043756 12 319 4.0 13.0 0.00 0.00 0.00 63 991.9
20210305043025 13 326 4.0 12.0 0.00 0.00 0.00 64 991.8
20210305041755 13 315 3.0 17.0 0.00 0.00 0.00 64 991.6
20210305040749 13 308 2.0 20.0 0.00 0.00 0.00 64 991.6
20210305040441 13 340 7.0 20.0 0.00 0.00 0.00 65 991.7
20210305034234 13 313 7.0 14.0 0.00 0.00 0.00 65 991.7
20210305033724 13 319 6.0 13.0 0.00 0.00 0.00 65 991.7
20210305032759 13 308 4.0 15.0 0.00 0.00 0.00 65 991.9
20210305031226 14 311 6.0 17.0 0.00 0.00 0.00 66 991.9
20210305030738 14 293 6.0 17.0 0.00 0.00 0.00 67 991.9
20210305024248 14 275 4.0 11.0 0.00 0.00 0.00 71 991.9
20210305023800 14 325 4.0 11.0 0.00 0.00 0.00 71 991.9
20210305023248 14 294 3.0 15.0 0.00 0.00 0.00 71 991.9
20210305022927 14 280 8.0 15.0 0.00 0.00 0.00 70 991.9
20210305022744 14 304 6.0 12.0 0.00 0.00 0.00 70 991.9
20210305020803 14 299 5.0 15.0 0.00 0.00 0.00 67 991.9
20210305020027 14 292 7.0 18.0 0.00 0.00 0.00 68 991.4
20210305015605 14 298 9.0 18.0 0.00 0.00 0.00 68 991.4
20210305014910 15 298 7.0 21.0 0.00 0.00 0.00 68 991.3
20210305013324 15 298 6.0 21.0 0.00 0.00 0.00 68 991.0
20210305012945 15 302 7.0 19.0 0.00 0.00 0.00 66 991.0
20210305011717 15 281 6.0 20.0 0.00 0.00 0.00 65 990.9
20210305011245 15 287 9.0 26.0 0.00 0.00 0.00 65 990.9
20210305005924 15 307 6.0 23.0 0.00 0.00 0.00 65 990.7
20210305005739 15 301 9.0 21.0 0.00 0.00 0.00 65 990.7
20210305004305 15 285 10.0 23.0 0.00 0.00 0.00 64 990.6
20210305003750 15 297 5.0 21.0 0.00 0.00 0.00 65 990.6
20210305002945 15 281 8.0 18.0 0.00 0.00 0.00 64 990.4
20210305002645 15 272 9.0 20.0 0.00 0.00 0.00 64 990.4
20210305001815 16 284 6.0 20.0 0.00 0.00 0.00 64 990.4
20210305001305 16 285 8.0 19.0 0.00 0.00 0.00 64 990.3
20210305000754 16 287 5.0 20.0 0.00 0.00 0.00 64 990.3
20210304234242 16 275 9.0 23.0 0.00 0.00 0.00 64 990.0
20210304230110 16 253 7.0 17.0 0.00 0.00 0.00 65 989.5
20210304225837 16 305 5.0 16.0 0.00 0.00 0.00 65 989.5
20210304224805 16 298 5.0 16.0 0.00 0.00 0.00 65 989.4
20210304224313 16 307 4.0 15.0 0.00 0.00 0.00 66 989.4
20210304223327 16 282 3.0 15.0 0.00 0.00 0.00 66 989.3
20210304222945 17 288 8.0 15.0 0.00 0.00 0.00 66 989.3
20210304222728 17 306 6.0 15.0 0.00 0.00 0.00 66 989.3
20210304221302 17 273 8.0 16.0 0.00 0.00 0.00 66 989.0
20210304220118 18 276 8.0 15.0 0.00 0.00 0.00 66 988.8
20210304214236 18 280 11.0 21.0 0.00 0.00 0.00 66 988.7
20210304213739 18 269 7.0 14.0 0.00 0.00 0.00 67 988.7
20210304213240 18 272 6.0 14.0 0.00 0.00 0.00 67 988.4
20210304210734 18 283 8.0 15.0 0.00 0.00 0.00 71 988.2
20210304205936 18 296 5.0 20.0 0.00 0.00 0.00 72 988.2
20210304204913 18 267 11.0 18.0 0.00 0.01 0.00 75 988.1
20210304203810 18 266 11.0 21.0 0.00 0.01 0.00 75 988.1
20210304203231 18 285 10.0 30.0 0.00 0.01 0.00 75 988.1
20210304202946 18 287 9.0 30.0 0.00 0.01 0.00 75 988.1
20210304201913 19 290 9.0 23.0 0.00 0.01 0.00 77 987.7
20210304200757 19 287 6.0 15.0 0.00 0.01 0.00 78 987.8
20210304200414 19 266 9.0 15.0 0.00 0.01 0.00 77 988.1
20210304195852 19 276 10.0 22.0 0.00 0.02 0.00 76 988.1
20210304194756 19 287 11.0 22.0 0.00 0.02 0.00 76 987.9
20210304194242 19 284 7.0 20.0 0.00 0.02 0.00 76 987.9
20210304193330 19 288 6.0 20.0 0.00 0.02 0.00 77 987.8
20210304193101 19 301 6.0 24.0 0.00 0.03 0.00 76 987.8
20210304191248 20 315 4.0 18.0 0.00 0.04 0.00 78 988.2
20210304190725 19 282 7.0 24.0 0.00 0.05 0.00 78 988.2
20210304190027 20 250 9.0 21.0 0.00 0.06 0.00 79 988.0
20210304185822 20 282 3.0 15.0 0.00 0.07 0.00 81 988.0
20210304183359 20 280 8.0 24.0 0.00 0.09 0.00 82 987.9
20210304182915 20 273 12.0 24.0 0.00 0.09 0.00 84 987.9
20210304182757 20 265 5.0 15.0 0.00 0.09 0.00 84 987.9
20210304180055 22 280 10.0 23.0 0.00 0.09 0.00 80 987.8
20210304175813 23 269 13.0 22.0 0.00 0.09 0.00 76 987.8
20210304172834 27 298 7.0 22.0 0.00 0.09 0.00 51 987.8
20210304170859 26 299 9.0 23.0 0.00 0.09 0.00 47 988.1
20210304170050 27 301 7.0 23.0 0.00 0.09 0.00 48 988.2
20210304163351 25 287 7.0 21.0 0.00 0.09 0.00 48 988.8
20210304162333 25 270 13.0 25.0 0.00 0.09 0.00 48 989.1
20210304160859 25 285 8.0 18.0 0.00 0.09 0.00 49 989.1
20210304155309 23 266 8.0 21.0 0.00 0.09 0.00 50 989.5
20210304152942 22 284 11.0 27.0 0.00 0.09 0.00 50 989.8
20210304151246 22 277 9.0 20.0 0.00 0.09 0.00 51 989.9
20210304150136 21 271 8.0 20.0 0.00 0.09 0.00 52 990.3
20210304142824 19 273 10.0 26.0 0.00 0.09 0.00 53 991.1
20210304141804 20 296 8.0 24.0 0.00 0.09 0.00 53 991.4
20210304140306 18 286 6.0 21.0 0.00 0.09 0.00 55 991.0
20210304135615 17 290 12.0 24.0 0.00 0.09 0.00 56 991.0
20210304132835 16 281 11.0 24.0 0.00 0.09 0.00 57 991.6
20210304131721 16 274 12.0 22.0 0.00 0.09 0.00 57 991.9
20210304131243 16 293 13.0 22.0 0.00 0.09 0.00 58 992.0
20210304130745 16 296 10.0 19.0 0.00 0.09 0.00 57 992.0
20210304130303 16 295 8.0 19.0 0.00 0.09 0.00 58 992.4
20210304125738 16 275 9.0 18.0 0.00 0.09 0.00 58 992.4
20210304124812 15 291 7.0 17.0 0.00 0.09 0.00 59 992.4
20210304123749 14 301 3.0 14.0 0.00 0.09 0.00 60 992.4
20210304123248 14 285 6.0 16.0 0.00 0.09 0.00 61 992.4
20210304121707 13 260 6.0 13.0 0.00 0.09 0.00 62 992.5
20210304121229 13 284 4.0 15.0 0.00 0.09 0.00 63 992.5
20210304120727 13 250 5.0 16.0 0.00 0.09 0.00 62 992.5
20210304120120 13 301 3.0 11.0 0.00 0.09 0.00 63 992.4
20210304115720 13 253 5.0 13.0 0.00 0.09 0.00 64 992.4
20210304114741 13 256 6.0 14.0 0.00 0.09 0.00 64 992.4
20210304113840 12 283 5.0 14.0 0.00 0.09 0.00 65 992.4
20210304113029 12 219 5.0 13.0 0.00 0.09 0.00 65 992.5
20210304112820 12 274 3.0 13.0 0.00 0.09 0.00 65 992.5
20210304111924 12 248 4.0 11.0 0.00 0.09 0.00 65 992.4
20210304111259 12 265 6.0 15.0 0.00 0.09 0.00 65 992.4
20210304110812 12 246 6.0 15.0 0.00 0.09 0.00 65 992.4
20210304110247 13 198 2.0 11.0 0.00 0.09 0.00 64 992.5
20210304104954 13 255 4.0 12.0 0.00 0.09 0.00 64 992.5
20210304103800 13 273 3.0 13.0 0.00 0.09 0.00 64 992.5
20210304102839 14 264 5.0 17.0 0.00 0.09 0.00 63 993.1
20210304101759 14 274 4.0 15.0 0.00 0.09 0.00 63 993.0
20210304101249 14 248 7.0 15.0 0.00 0.09 0.00 63 993.1
20210304095911 14 292 7.0 13.0 0.00 0.09 0.00 62 993.2
20210304095650 14 304 3.0 16.0 0.00 0.09 0.00 62 993.2
20210304094809 14 289 4.0 19.0 0.00 0.09 0.00 62 993.5